iso_date,Year,Hour,Min,DOY,POS_DOY,Lat,Lon,BP,Ts,Ta,has_bp,has_ts,has_ta,BuoyID,Buoy_Type,Buoy_Owner,Logistics,Hemisphere
2021-09-20T16:00:02Z,2021,16,0,263.6667,263.6667,66.069,-23.118,999.5,5.03,-999.0,yes,yes,no,300234068447260,BD2GHI,AOML,UNKNOWN,North
2021-09-20T16:59:57Z,2021,17,0,263.7083,263.7083,66.069,-23.118,1000.4,5.14,-999.0,yes,yes,no,300234068447260,BD2GHI,AOML,UNKNOWN,North
2021-09-20T18:00:00Z,2021,18,0,263.75,263.75,66.069,-23.118,1001.7,5.63,-999.0,yes,yes,no,300234068447260,BD2GHI,AOML,UNKNOWN,North
2021-09-20T19:00:02Z,2021,19,0,263.7917,263.7917,66.069,-23.118,1002.7,5.11,-999.0,yes,yes,no,300234068447260,BD2GHI,AOML,UNKNOWN,North
2021-09-20T19:59:57Z,2021,20,0,263.8333,263.8333,66.068,-23.119,1003.6,4.59,-999.0,yes,yes,no,300234068447260,BD2GHI,AOML,UNKNOWN,North
2021-09-20T21:00:00Z,2021,21,0,263.875,263.875,66.07,-23.12,1004.0,4.67,-999.0,yes,yes,no,300234068447260,BD2GHI,AOML,UNKNOWN,North
2021-09-20T22:59:57Z,2021,23,0,263.9583,263.9583,66.069,-23.119,1003.8,4.66,-999.0,yes,yes,no,300234068447260,BD2GHI,AOML,UNKNOWN,North
2021-09-21T01:00:02Z,2021,1,0,264.0417,264.0417,66.07,-23.118,1002.7,4.93,-999.0,yes,yes,no,300234068447260,BD2GHI,AOML,UNKNOWN,North
2021-09-21T01:59:57Z,2021,2,0,264.0833,264.0833,66.069,-23.117,1001.7,4.96,-999.0,yes,yes,no,300234068447260,BD2GHI,AOML,UNKNOWN,North
2021-09-21T03:00:00Z,2021,3,0,264.125,264.125,66.069,-23.118,1000.4,4.91,-999.0,yes,yes,no,300234068447260,BD2GHI,AOML,UNKNOWN,North
2021-09-21T04:00:02Z,2021,4,0,264.1667,264.1667,66.069,-23.118,998.4,5.15,-999.0,yes,yes,no,300234068447260,BD2GHI,AOML,UNKNOWN,North
2021-09-21T06:00:00Z,2021,6,0,264.25,264.25,66.069,-23.118,994.6,3.83,-999.0,yes,yes,no,300234068447260,BD2GHI,AOML,UNKNOWN,North
2021-09-21T07:59:57Z,2021,8,0,264.3333,264.3333,66.069,-23.12,991.0,3.45,-999.0,yes,yes,no,300234068447260,BD2GHI,AOML,UNKNOWN,North
2021-09-21T10:00:02Z,2021,10,0,264.4167,264.4167,66.069,-23.113,984.7,3.46,-999.0,yes,yes,no,300234068447260,BD2GHI,AOML,UNKNOWN,North
2021-09-21T10:59:57Z,2021,11,0,264.4583,264.4583,66.069,-23.118,982.1,3.8,-999.0,yes,yes,no,300234068447260,BD2GHI,AOML,UNKNOWN,North
2021-09-21T15:00:00Z,2021,15,0,264.625,264.625,66.07,-23.118,975.4,2.68,-999.0,yes,yes,no,300234068447260,BD2GHI,AOML,UNKNOWN,North
2021-09-21T16:00:02Z,2021,16,0,264.6667,264.6667,66.07,-23.117,976.3,2.55,-999.0,yes,yes,no,300234068447260,BD2GHI,AOML,UNKNOWN,North
2021-09-21T16:59:57Z,2021,17,0,264.7083,264.7083,66.07,-23.118,978.0,2.73,-999.0,yes,yes,no,300234068447260,BD2GHI,AOML,UNKNOWN,North
2021-09-21T19:00:02Z,2021,19,0,264.7917,264.7917,66.069,-23.118,982.5,2.16,-999.0,yes,yes,no,300234068447260,BD2GHI,AOML,UNKNOWN,North
2021-09-21T19:59:57Z,2021,20,0,264.8333,264.8333,66.069,-23.118,984.8,2.01,-999.0,yes,yes,no,300234068447260,BD2GHI,AOML,UNKNOWN,North
2021-09-21T21:00:00Z,2021,21,0,264.875,264.875,66.07,-23.117,986.7,1.39,-999.0,yes,yes,no,300234068447260,BD2GHI,AOML,UNKNOWN,North
2021-09-21T22:59:57Z,2021,23,0,264.9583,264.9583,66.069,-23.118,988.7,1.31,-999.0,yes,yes,no,300234068447260,BD2GHI,AOML,UNKNOWN,North
2021-09-22T00:00:00Z,2021,0,0,265.0,265.0,66.069,-23.118,989.2,0.93,-999.0,yes,yes,no,300234068447260,BD2GHI,AOML,UNKNOWN,North
2021-09-22T01:00:02Z,2021,1,0,265.0417,265.0417,66.069,-23.118,990.0,0.92,-999.0,yes,yes,no,300234068447260,BD2GHI,AOML,UNKNOWN,North
2021-09-22T03:00:00Z,2021,3,0,265.125,265.125,66.069,-23.118,989.9,0.9,-999.0,yes,yes,no,300234068447260,BD2GHI,AOML,UNKNOWN,North
2021-09-22T04:00:02Z,2021,4,0,265.1667,265.1667,66.069,-23.118,989.8,1.01,-999.0,yes,yes,no,300234068447260,BD2GHI,AOML,UNKNOWN,North
2021-09-22T04:59:57Z,2021,5,0,265.2083,265.2083,66.069,-23.118,989.7,0.8,-999.0,yes,yes,no,300234068447260,BD2GHI,AOML,UNKNOWN,North
2021-09-22T06:00:00Z,2021,6,0,265.25,265.25,66.069,-23.117,989.7,0.37,-999.0,yes,yes,no,300234068447260,BD2GHI,AOML,UNKNOWN,North
2021-09-22T07:00:02Z,2021,7,0,265.2917,265.2917,66.069,-23.118,989.7,0.78,-999.0,yes,yes,no,300234068447260,BD2GHI,AOML,UNKNOWN,North
2021-09-22T07:59:57Z,2021,8,0,265.3333,265.3333,66.069,-23.118,989.6,0.54,-999.0,yes,yes,no,300234068447260,BD2GHI,AOML,UNKNOWN,North
2021-09-22T09:00:00Z,2021,9,0,265.375,265.375,66.069,-23.117,989.5,1.52,-999.0,yes,yes,no,300234068447260,BD2GHI,AOML,UNKNOWN,North
2021-09-22T10:00:02Z,2021,10,0,265.4167,265.4167,66.069,-23.118,989.8,2.08,-999.0,yes,yes,no,300234068447260,BD2GHI,AOML,UNKNOWN,North
2021-09-22T12:00:00Z,2021,12,0,265.5,265.5,66.069,-23.118,990.5,3.93,-999.0,yes,yes,no,300234068447260,BD2GHI,AOML,UNKNOWN,North
2021-09-22T13:00:02Z,2021,13,0,265.5417,265.5417,66.069,-23.118,991.1,5.53,-999.0,yes,yes,no,300234068447260,BD2GHI,AOML,UNKNOWN,North
2021-09-22T13:59:57Z,2021,14,0,265.5833,265.5833,66.069,-23.118,991.7,7.56,-999.0,yes,yes,no,300234068447260,BD2GHI,AOML,UNKNOWN,North
2021-09-22T15:00:00Z,2021,15,0,265.625,265.625,66.069,-23.118,992.2,12.52,-999.0,yes,yes,no,300234068447260,BD2GHI,AOML,UNKNOWN,North
2021-09-22T16:00:02Z,2021,16,0,265.6667,265.6667,66.071,-23.113,993.1,14.57,-999.0,yes,yes,no,300234068447260,BD2GHI,AOML,UNKNOWN,North
2021-09-22T16:59:57Z,2021,17,0,265.7083,265.7083,66.069,-23.118,994.2,8.72,-999.0,yes,yes,no,300234068447260,BD2GHI,AOML,UNKNOWN,North
2021-09-22T18:00:00Z,2021,18,0,265.75,265.75,66.069,-23.118,995.5,6.91,-999.0,yes,yes,no,300234068447260,BD2GHI,AOML,UNKNOWN,North
2021-09-22T19:00:02Z,2021,19,0,265.7917,265.7917,66.069,-23.119,996.7,4.54,-999.0,yes,yes,no,300234068447260,BD2GHI,AOML,UNKNOWN,North
2021-09-22T21:00:00Z,2021,21,0,265.875,265.875,66.069,-23.118,998.6,3.46,-999.0,yes,yes,no,300234068447260,BD2GHI,AOML,UNKNOWN,North
2021-09-22T22:00:02Z,2021,22,0,265.9167,265.9167,66.07,-23.117,999.3,2.82,-999.0,yes,yes,no,300234068447260,BD2GHI,AOML,UNKNOWN,North
2021-09-22T22:59:57Z,2021,23,0,265.9583,265.9583,66.069,-23.118,999.8,2.82,-999.0,yes,yes,no,300234068447260,BD2GHI,AOML,UNKNOWN,North
2021-09-23T00:00:00Z,2021,0,0,266.0,266.0,66.07,-23.118,1000.8,2.55,-999.0,yes,yes,no,300234068447260,BD2GHI,AOML,UNKNOWN,North
2021-09-23T03:00:00Z,2021,3,0,266.125,266.125,66.069,-23.118,1000.9,1.18,-999.0,yes,yes,no,300234068447260,BD2GHI,AOML,UNKNOWN,North
2021-09-23T04:00:02Z,2021,4,0,266.1667,266.1667,66.069,-23.119,1001.2,1.28,-999.0,yes,yes,no,300234068447260,BD2GHI,AOML,UNKNOWN,North
2021-09-23T04:59:57Z,2021,5,0,266.2083,266.2083,66.069,-23.118,1000.4,1.31,-999.0,yes,yes,no,300234068447260,BD2GHI,AOML,UNKNOWN,North
2021-09-23T06:00:00Z,2021,6,0,266.25,266.25,66.069,-23.118,1000.1,1.24,-999.0,yes,yes,no,300234068447260,BD2GHI,AOML,UNKNOWN,North
2021-09-23T07:00:02Z,2021,7,0,266.2917,266.2917,66.07,-23.118,999.6,1.8,-999.0,yes,yes,no,300234068447260,BD2GHI,AOML,UNKNOWN,North
2021-09-23T07:59:57Z,2021,8,0,266.3333,266.3333,66.069,-23.118,999.2,2.04,-999.0,yes,yes,no,300234068447260,BD2GHI,AOML,UNKNOWN,North
2021-09-23T10:00:02Z,2021,10,0,266.4167,266.4167,66.069,-23.118,997.7,3.34,-999.0,yes,yes,no,300234068447260,BD2GHI,AOML,UNKNOWN,North
2021-09-23T13:00:02Z,2021,13,0,266.5417,266.5417,66.069,-23.119,994.9,6.35,-999.0,yes,yes,no,300234068447260,BD2GHI,AOML,UNKNOWN,North
2021-09-23T13:59:57Z,2021,14,0,266.5833,266.5833,66.07,-23.118,993.7,6.64,-999.0,yes,yes,no,300234068447260,BD2GHI,AOML,UNKNOWN,North
2021-09-23T15:00:00Z,2021,15,0,266.625,266.625,66.069,-23.117,992.4,6.87,-999.0,yes,yes,no,300234068447260,BD2GHI,AOML,UNKNOWN,North
2021-09-23T16:00:02Z,2021,16,0,266.6667,266.6667,66.069,-23.118,991.8,6.79,-999.0,yes,yes,no,300234068447260,BD2GHI,AOML,UNKNOWN,North
2021-09-23T16:59:57Z,2021,17,0,266.7083,266.7083,66.07,-23.119,991.1,4.44,-999.0,yes,yes,no,300234068447260,BD2GHI,AOML,UNKNOWN,North
2021-09-23T18:00:00Z,2021,18,0,266.75,266.75,66.069,-23.118,990.9,5.47,-999.0,yes,yes,no,300234068447260,BD2GHI,AOML,UNKNOWN,North
2021-09-23T19:00:02Z,2021,19,0,266.7917,266.7917,66.069,-23.118,991.3,4.84,-999.0,yes,yes,no,300234068447260,BD2GHI,AOML,UNKNOWN,North
2021-09-23T19:59:57Z,2021,20,0,266.8333,266.8333,66.069,-23.117,991.2,5.5,-999.0,yes,yes,no,300234068447260,BD2GHI,AOML,UNKNOWN,North
2021-09-23T22:59:57Z,2021,23,0,266.9583,266.9583,66.069,-23.118,992.1,4.92,-999.0,yes,yes,no,300234068447260,BD2GHI,AOML,UNKNOWN,North
2021-09-24T01:00:02Z,2021,1,0,267.0417,267.0417,66.07,-23.118,993.9,4.3,-999.0,yes,yes,no,300234068447260,BD2GHI,AOML,UNKNOWN,North
2021-09-24T03:00:00Z,2021,3,0,267.125,267.125,66.069,-23.119,995.8,2.62,-999.0,yes,yes,no,300234068447260,BD2GHI,AOML,UNKNOWN,North
2021-09-24T04:59:57Z,2021,5,0,267.2083,267.2083,66.07,-23.117,997.0,2.63,-999.0,yes,yes,no,300234068447260,BD2GHI,AOML,UNKNOWN,North
2021-09-24T06:00:00Z,2021,6,0,267.25,267.25,66.069,-23.117,997.5,2.82,-999.0,yes,yes,no,300234068447260,BD2GHI,AOML,UNKNOWN,North
2021-09-24T07:59:57Z,2021,8,0,267.3333,267.3333,66.069,-23.117,998.4,2.86,-999.0,yes,yes,no,300234068447260,BD2GHI,AOML,UNKNOWN,North
2021-09-24T10:59:57Z,2021,11,0,267.4583,267.4583,66.069,-23.118,1000.1,4.66,-999.0,yes,yes,no,300234068447260,BD2GHI,AOML,UNKNOWN,North
2021-09-24T12:00:00Z,2021,12,0,267.5,267.5,66.069,-23.118,1000.8,5.13,-999.0,yes,yes,no,300234068447260,BD2GHI,AOML,UNKNOWN,North
2021-09-24T13:59:57Z,2021,14,0,267.5833,267.5833,66.069,-23.118,1001.0,5.49,-999.0,yes,yes,no,300234068447260,BD2GHI,AOML,UNKNOWN,North
2021-09-24T15:00:00Z,2021,15,0,267.625,267.625,66.069,-23.117,1001.4,5.79,-999.0,yes,yes,no,300234068447260,BD2GHI,AOML,UNKNOWN,North
2021-09-24T16:00:02Z,2021,16,0,267.6667,267.6667,66.071,-23.118,1001.6,5.97,-999.0,yes,yes,no,300234068447260,BD2GHI,AOML,UNKNOWN,North
2021-09-24T16:59:57Z,2021,17,0,267.7083,267.7083,66.071,-23.12,1001.9,5.82,-999.0,yes,yes,no,300234068447260,BD2GHI,AOML,UNKNOWN,North
2021-09-24T18:00:00Z,2021,18,0,267.75,267.75,66.069,-23.118,1002.3,5.37,-999.0,yes,yes,no,300234068447260,BD2GHI,AOML,UNKNOWN,North
2021-09-24T19:00:02Z,2021,19,0,267.7917,267.7917,66.069,-23.118,1003.1,4.83,-999.0,yes,yes,no,300234068447260,BD2GHI,AOML,UNKNOWN,North
2021-09-24T19:59:57Z,2021,20,0,267.8333,267.8333,66.069,-23.118,1003.5,4.54,-999.0,yes,yes,no,300234068447260,BD2GHI,AOML,UNKNOWN,North
2021-09-24T21:00:00Z,2021,21,0,267.875,267.875,66.069,-23.117,1003.8,4.56,-999.0,yes,yes,no,300234068447260,BD2GHI,AOML,UNKNOWN,North
2021-09-24T22:00:02Z,2021,22,0,267.9167,267.9167,66.136,-23.269,1003.7,4.75,-999.0,yes,yes,no,300234068447260,BD2GHI,AOML,UNKNOWN,North
2021-09-24T22:59:57Z,2021,23,0,267.9583,267.9583,66.068,-23.116,1003.9,4.47,-999.0,yes,yes,no,300234068447260,BD2GHI,AOML,UNKNOWN,North
2021-09-25T00:00:00Z,2021,0,0,268.0,268.0,66.069,-23.117,1004.2,4.63,-999.0,yes,yes,no,300234068447260,BD2GHI,AOML,UNKNOWN,North
2021-09-25T03:00:00Z,2021,3,0,268.125,268.125,66.069,-23.118,1004.1,4.0,-999.0,yes,yes,no,300234068447260,BD2GHI,AOML,UNKNOWN,North
2021-09-25T06:00:00Z,2021,6,0,268.25,268.25,66.069,-23.117,1004.1,4.07,-999.0,yes,yes,no,300234068447260,BD2GHI,AOML,UNKNOWN,North
2021-09-25T07:00:02Z,2021,7,0,268.2917,268.2917,66.07,-23.119,1004.1,4.15,-999.0,yes,yes,no,300234068447260,BD2GHI,AOML,UNKNOWN,North
2021-09-25T07:59:57Z,2021,8,0,268.3333,268.3333,66.069,-23.117,1004.5,4.18,-999.0,yes,yes,no,300234068447260,BD2GHI,AOML,UNKNOWN,North
2021-09-25T09:00:00Z,2021,9,0,268.375,268.375,66.069,-23.117,1004.7,4.24,-999.0,yes,yes,no,300234068447260,BD2GHI,AOML,UNKNOWN,North
2021-09-25T10:00:02Z,2021,10,0,268.4167,268.4167,66.069,-23.118,1004.3,4.22,-999.0,yes,yes,no,300234068447260,BD2GHI,AOML,UNKNOWN,North
2021-09-25T13:00:02Z,2021,13,0,268.5417,268.5417,66.069,-23.118,1004.2,3.69,-999.0,yes,yes,no,300234068447260,BD2GHI,AOML,UNKNOWN,North
2021-09-25T13:59:57Z,2021,14,0,268.5833,268.5833,66.069,-23.118,1003.9,3.02,-999.0,yes,yes,no,300234068447260,BD2GHI,AOML,UNKNOWN,North
2021-09-25T15:00:00Z,2021,15,0,268.625,268.625,66.069,-23.117,1004.0,2.61,-999.0,yes,yes,no,300234068447260,BD2GHI,AOML,UNKNOWN,North
2021-09-25T16:00:02Z,2021,16,0,268.6667,268.6667,66.071,-23.118,1003.5,2.14,-999.0,yes,yes,no,300234068447260,BD2GHI,AOML,UNKNOWN,North
2021-09-25T16:59:57Z,2021,17,0,268.7083,268.7083,66.072,-23.121,1002.9,2.46,-999.0,yes,yes,no,300234068447260,BD2GHI,AOML,UNKNOWN,North
2021-09-25T18:00:00Z,2021,18,0,268.75,268.75,66.069,-23.119,1003.0,2.22,-999.0,yes,yes,no,300234068447260,BD2GHI,AOML,UNKNOWN,North
2021-09-25T19:00:02Z,2021,19,0,268.7917,268.7917,66.069,-23.118,1003.0,2.12,-999.0,yes,yes,no,300234068447260,BD2GHI,AOML,UNKNOWN,North
2021-09-25T19:59:57Z,2021,20,0,268.8333,268.8333,66.07,-23.117,1003.0,2.08,-999.0,yes,yes,no,300234068447260,BD2GHI,AOML,UNKNOWN,North
2021-09-25T21:00:00Z,2021,21,0,268.875,268.875,66.07,-23.118,1003.0,2.17,-999.0,yes,yes,no,300234068447260,BD2GHI,AOML,UNKNOWN,North
2021-09-25T22:00:02Z,2021,22,0,268.9167,268.9167,66.069,-23.118,1003.0,2.05,-999.0,yes,yes,no,300234068447260,BD2GHI,AOML,UNKNOWN,North
2021-09-25T22:59:57Z,2021,23,0,268.9583,268.9583,66.069,-23.118,1003.0,2.17,-999.0,yes,yes,no,300234068447260,BD2GHI,AOML,UNKNOWN,North
2021-09-26T00:00:00Z,2021,0,0,269.0,269.0,66.069,-23.118,1002.9,2.07,-999.0,yes,yes,no,300234068447260,BD2GHI,AOML,UNKNOWN,North
2021-09-26T01:00:02Z,2021,1,0,269.0417,269.0417,66.069,-23.118,1002.6,2.74,-999.0,yes,yes,no,300234068447260,BD2GHI,AOML,UNKNOWN,North
2021-09-26T04:00:02Z,2021,4,0,269.1667,269.1667,66.069,-23.119,1002.1,2.51,-999.0,yes,yes,no,300234068447260,BD2GHI,AOML,UNKNOWN,North
2021-09-26T04:59:57Z,2021,5,0,269.2083,269.2083,66.069,-23.118,1001.8,2.66,-999.0,yes,yes,no,300234068447260,BD2GHI,AOML,UNKNOWN,North
2021-09-26T07:00:02Z,2021,7,0,269.2917,269.2917,66.069,-23.118,1001.6,2.41,-999.0,yes,yes,no,300234068447260,BD2GHI,AOML,UNKNOWN,North
2021-09-26T07:59:57Z,2021,8,0,269.3333,269.3333,66.069,-23.118,1001.4,2.38,-999.0,yes,yes,no,300234068447260,BD2GHI,AOML,UNKNOWN,North
2021-09-26T09:00:00Z,2021,9,0,269.375,269.375,66.069,-23.118,1001.2,2.44,-999.0,yes,yes,no,300234068447260,BD2GHI,AOML,UNKNOWN,North
2021-09-26T12:00:00Z,2021,12,0,269.5,269.5,66.07,-23.117,1000.3,2.84,-999.0,yes,yes,no,300234068447260,BD2GHI,AOML,UNKNOWN,North
2021-09-26T13:00:02Z,2021,13,0,269.5417,269.5417,66.069,-23.116,999.9,3.23,-999.0,yes,yes,no,300234068447260,BD2GHI,AOML,UNKNOWN,North
2021-09-26T13:59:57Z,2021,14,0,269.5833,269.5833,66.069,-23.117,999.6,3.5,-999.0,yes,yes,no,300234068447260,BD2GHI,AOML,UNKNOWN,North
2021-09-26T15:00:00Z,2021,15,0,269.625,269.625,66.069,-23.117,999.8,3.53,-999.0,yes,yes,no,300234068447260,BD2GHI,AOML,UNKNOWN,North
2021-09-26T16:00:02Z,2021,16,0,269.6667,269.6667,66.069,-23.117,1000.1,3.37,-999.0,yes,yes,no,300234068447260,BD2GHI,AOML,UNKNOWN,North
2021-09-26T16:59:57Z,2021,17,0,269.7083,269.7083,66.069,-23.118,1000.2,2.66,-999.0,yes,yes,no,300234068447260,BD2GHI,AOML,UNKNOWN,North
2021-09-26T18:00:00Z,2021,18,0,269.75,269.75,66.069,-23.118,1000.5,2.34,-999.0,yes,yes,no,300234068447260,BD2GHI,AOML,UNKNOWN,North
2021-09-26T19:00:02Z,2021,19,0,269.7917,269.7917,66.069,-23.118,1001.2,2.11,-999.0,yes,yes,no,300234068447260,BD2GHI,AOML,UNKNOWN,North
2021-09-26T19:59:57Z,2021,20,0,269.8333,269.8333,66.07,-23.116,1001.7,1.87,-999.0,yes,yes,no,300234068447260,BD2GHI,AOML,UNKNOWN,North
2021-09-26T21:00:00Z,2021,21,0,269.875,269.875,66.07,-23.118,1002.8,1.96,-999.0,yes,yes,no,300234068447260,BD2GHI,AOML,UNKNOWN,North
2021-09-26T22:00:02Z,2021,22,0,269.9167,269.9167,66.069,-23.119,1003.0,1.57,-999.0,yes,yes,no,300234068447260,BD2GHI,AOML,UNKNOWN,North
2021-09-26T22:59:57Z,2021,23,0,269.9583,269.9583,66.07,-23.119,1003.0,1.55,-999.0,yes,yes,no,300234068447260,BD2GHI,AOML,UNKNOWN,North
2021-09-27T01:00:02Z,2021,1,0,270.0417,270.0417,66.069,-23.119,1003.4,0.63,-999.0,yes,yes,no,300234068447260,BD2GHI,AOML,UNKNOWN,North
2021-09-27T03:00:00Z,2021,3,0,270.125,270.125,66.069,-23.118,1003.6,0.72,-999.0,yes,yes,no,300234068447260,BD2GHI,AOML,UNKNOWN,North
2021-09-27T04:59:57Z,2021,5,0,270.2083,270.2083,66.069,-23.118,1003.7,0.17,-999.0,yes,yes,no,300234068447260,BD2GHI,AOML,UNKNOWN,North
2021-09-27T06:00:00Z,2021,6,0,270.25,270.25,66.069,-23.118,1004.0,0.4,-999.0,yes,yes,no,300234068447260,BD2GHI,AOML,UNKNOWN,North
2021-09-27T07:59:57Z,2021,8,0,270.3333,270.3333,66.069,-23.117,1004.6,0.34,-999.0,yes,yes,no,300234068447260,BD2GHI,AOML,UNKNOWN,North
2021-09-27T12:00:00Z,2021,12,0,270.5,270.5,66.069,-23.117,1006.2,0.72,-999.0,yes,yes,no,300234068447260,BD2GHI,AOML,UNKNOWN,North
2021-09-27T13:00:02Z,2021,13,0,270.5417,270.5417,66.069,-23.117,1006.8,0.27,-999.0,yes,yes,no,300234068447260,BD2GHI,AOML,UNKNOWN,North
2021-09-27T13:59:57Z,2021,14,0,270.5833,270.5833,66.069,-23.117,1006.5,0.14,-999.0,yes,yes,no,300234068447260,BD2GHI,AOML,UNKNOWN,North
2021-09-27T15:00:00Z,2021,15,0,270.625,270.625,66.069,-23.116,1006.4,0.62,-999.0,yes,yes,no,300234068447260,BD2GHI,AOML,UNKNOWN,North
2021-09-27T16:00:02Z,2021,16,0,270.6667,270.6667,66.069,-23.121,1006.7,0.41,-999.0,yes,yes,no,300234068447260,BD2GHI,AOML,UNKNOWN,North
2021-09-27T16:59:57Z,2021,17,0,270.7083,270.7083,66.068,-23.119,1006.7,0.29,-999.0,yes,yes,no,300234068447260,BD2GHI,AOML,UNKNOWN,North
2021-09-27T18:00:00Z,2021,18,0,270.75,270.75,66.069,-23.118,1006.8,0.44,-999.0,yes,yes,no,300234068447260,BD2GHI,AOML,UNKNOWN,North
2021-09-27T19:00:02Z,2021,19,0,270.7917,270.7917,66.069,-23.118,1006.8,0.36,-999.0,yes,yes,no,300234068447260,BD2GHI,AOML,UNKNOWN,North
2021-09-27T22:00:02Z,2021,22,0,270.9167,270.9167,66.069,-23.118,1004.2,0.94,-999.0,yes,yes,no,300234068447260,BD2GHI,AOML,UNKNOWN,North
2021-09-27T22:59:57Z,2021,23,0,270.9583,270.9583,66.069,-23.118,1002.8,1.5,-999.0,yes,yes,no,300234068447260,BD2GHI,AOML,UNKNOWN,North
2021-09-28T00:00:00Z,2021,0,0,271.0,271.0,66.071,-23.12,1002.3,2.4,-999.0,yes,yes,no,300234068447260,BD2GHI,AOML,UNKNOWN,North
2021-09-28T01:00:02Z,2021,1,0,271.0417,271.0417,66.07,-23.118,1002.2,3.13,-999.0,yes,yes,no,300234068447260,BD2GHI,AOML,UNKNOWN,North
2021-09-28T03:00:00Z,2021,3,0,271.125,271.125,66.071,-23.117,1005.1,2.95,-999.0,yes,yes,no,300234068447260,BD2GHI,AOML,UNKNOWN,North
2021-09-28T04:59:57Z,2021,5,0,271.2083,271.2083,66.069,-23.118,1005.9,2.35,-999.0,yes,yes,no,300234068447260,BD2GHI,AOML,UNKNOWN,North
2021-09-28T06:00:00Z,2021,6,0,271.25,271.25,66.069,-23.118,1006.1,1.36,-999.0,yes,yes,no,300234068447260,BD2GHI,AOML,UNKNOWN,North
2021-09-28T07:00:02Z,2021,7,0,271.2917,271.2917,66.069,-23.118,1005.8,1.24,-999.0,yes,yes,no,300234068447260,BD2GHI,AOML,UNKNOWN,North
2021-09-28T09:00:00Z,2021,9,0,271.375,271.375,66.069,-23.118,1004.3,0.17,-999.0,yes,yes,no,300234068447260,BD2GHI,AOML,UNKNOWN,North
2021-09-28T10:00:02Z,2021,10,0,271.4167,271.4167,66.069,-23.118,1002.9,0.36,-999.0,yes,yes,no,300234068447260,BD2GHI,AOML,UNKNOWN,North
2021-09-28T10:59:57Z,2021,11,0,271.4583,271.4583,66.07,-23.118,1003.0,-0.02,-999.0,yes,yes,no,300234068447260,BD2GHI,AOML,UNKNOWN,North
2021-09-28T13:00:02Z,2021,13,0,271.5417,271.5417,66.069,-23.115,1000.6,-0.07,-999.0,yes,yes,no,300234068447260,BD2GHI,AOML,UNKNOWN,North
2021-09-28T13:59:57Z,2021,14,0,271.5833,271.5833,66.068,-23.115,999.3,0.06,-999.0,yes,yes,no,300234068447260,BD2GHI,AOML,UNKNOWN,North
2021-09-28T15:00:00Z,2021,15,0,271.625,271.625,66.069,-23.115,998.1,-0.05,-999.0,yes,yes,no,300234068447260,BD2GHI,AOML,UNKNOWN,North
2021-09-28T19:00:02Z,2021,19,0,271.7917,271.7917,66.069,-23.118,989.7,0.67,-999.0,yes,yes,no,300234068447260,BD2GHI,AOML,UNKNOWN,North
2021-09-28T19:59:57Z,2021,20,0,271.8333,271.8333,66.069,-23.118,987.9,1.09,-999.0,yes,yes,no,300234068447260,BD2GHI,AOML,UNKNOWN,North
2021-09-28T22:00:02Z,2021,22,0,271.9167,271.9167,66.069,-23.117,988.1,1.94,-999.0,yes,yes,no,300234068447260,BD2GHI,AOML,UNKNOWN,North
2021-09-28T22:59:57Z,2021,23,0,271.9583,271.9583,66.069,-23.118,988.2,2.07,-999.0,yes,yes,no,300234068447260,BD2GHI,AOML,UNKNOWN,North
2021-09-29T00:00:00Z,2021,0,0,272.0,272.0,66.069,-23.118,988.7,2.56,-999.0,yes,yes,no,300234068447260,BD2GHI,AOML,UNKNOWN,North
2021-09-29T01:00:02Z,2021,1,0,272.0417,272.0417,66.069,-23.118,989.0,2.63,-999.0,yes,yes,no,300234068447260,BD2GHI,AOML,UNKNOWN,North
2021-09-29T01:59:57Z,2021,2,0,272.0833,272.0833,66.069,-23.12,989.7,3.03,-999.0,yes,yes,no,300234068447260,BD2GHI,AOML,UNKNOWN,North
2021-09-29T03:00:00Z,2021,3,0,272.125,272.125,66.069,-23.118,990.3,3.27,-999.0,yes,yes,no,300234068447260,BD2GHI,AOML,UNKNOWN,North
2021-09-29T04:00:02Z,2021,4,0,272.1667,272.1667,66.069,-23.118,990.7,3.28,-999.0,yes,yes,no,300234068447260,BD2GHI,AOML,UNKNOWN,North
2021-09-29T04:59:57Z,2021,5,0,272.2083,272.2083,66.069,-23.118,991.3,3.03,-999.0,yes,yes,no,300234068447260,BD2GHI,AOML,UNKNOWN,North
2021-09-29T06:00:00Z,2021,6,0,272.25,272.25,66.07,-23.117,992.3,3.2,-999.0,yes,yes,no,300234068447260,BD2GHI,AOML,UNKNOWN,North
2021-09-29T07:00:02Z,2021,7,0,272.2917,272.2917,66.069,-23.118,993.5,3.22,-999.0,yes,yes,no,300234068447260,BD2GHI,AOML,UNKNOWN,North
2021-09-29T07:59:57Z,2021,8,0,272.3333,272.3333,66.069,-23.117,994.5,3.27,-999.0,yes,yes,no,300234068447260,BD2GHI,AOML,UNKNOWN,North
2021-09-29T10:59:57Z,2021,11,0,272.4583,272.4583,66.068,-23.115,996.3,4.96,-999.0,yes,yes,no,300234068447260,BD2GHI,AOML,UNKNOWN,North
2021-09-29T12:00:00Z,2021,12,0,272.5,272.5,66.069,-23.117,996.7,5.21,-999.0,yes,yes,no,300234068447260,BD2GHI,AOML,UNKNOWN,North
2021-09-29T13:59:57Z,2021,14,0,272.5833,272.5833,66.069,-23.117,997.4,4.23,-999.0,yes,yes,no,300234068447260,BD2GHI,AOML,UNKNOWN,North
2021-09-29T15:00:00Z,2021,15,0,272.625,272.625,66.069,-23.118,997.7,4.23,-999.0,yes,yes,no,300234068447260,BD2GHI,AOML,UNKNOWN,North
2021-09-29T16:00:02Z,2021,16,0,272.6667,272.6667,66.069,-23.118,998.1,4.32,-999.0,yes,yes,no,300234068447260,BD2GHI,AOML,UNKNOWN,North
2021-09-29T18:00:00Z,2021,18,0,272.75,272.75,66.069,-23.117,999.1,4.01,-999.0,yes,yes,no,300234068447260,BD2GHI,AOML,UNKNOWN,North
2021-09-29T19:00:02Z,2021,19,0,272.7917,272.7917,66.069,-23.118,999.7,3.91,-999.0,yes,yes,no,300234068447260,BD2GHI,AOML,UNKNOWN,North
2021-09-29T19:59:57Z,2021,20,0,272.8333,272.8333,66.069,-23.118,1000.3,3.88,-999.0,yes,yes,no,300234068447260,BD2GHI,AOML,UNKNOWN,North
2021-09-29T21:00:00Z,2021,21,0,272.875,272.875,66.07,-23.117,1000.7,4.3,-999.0,yes,yes,no,300234068447260,BD2GHI,AOML,UNKNOWN,North
2021-09-29T22:00:02Z,2021,22,0,272.9167,272.9167,66.07,-23.117,1001.4,3.48,-999.0,yes,yes,no,300234068447260,BD2GHI,AOML,UNKNOWN,North
2021-09-29T22:59:57Z,2021,23,0,272.9583,272.9583,66.069,-23.118,1001.9,3.61,-999.0,yes,yes,no,300234068447260,BD2GHI,AOML,UNKNOWN,North
2021-09-30T01:00:02Z,2021,1,0,273.0417,273.0417,66.07,-23.118,1002.7,3.28,-999.0,yes,yes,no,300234068447260,BD2GHI,AOML,UNKNOWN,North
2021-09-30T03:00:00Z,2021,3,0,273.125,273.125,66.07,-23.118,1003.1,3.05,-999.0,yes,yes,no,300234068447260,BD2GHI,AOML,UNKNOWN,North
2021-09-30T04:00:02Z,2021,4,0,273.1667,273.1667,66.07,-23.119,1003.6,2.79,-999.0,yes,yes,no,300234068447260,BD2GHI,AOML,UNKNOWN,North
2021-09-30T04:59:57Z,2021,5,0,273.2083,273.2083,66.068,-23.118,1003.9,3.0,-999.0,yes,yes,no,300234068447260,BD2GHI,AOML,UNKNOWN,North
2021-09-30T06:00:00Z,2021,6,0,273.25,273.25,66.069,-23.119,1004.4,2.61,-999.0,yes,yes,no,300234068447260,BD2GHI,AOML,UNKNOWN,North
2021-09-30T07:00:02Z,2021,7,0,273.2917,273.2917,66.07,-23.117,1005.0,2.54,-999.0,yes,yes,no,300234068447260,BD2GHI,AOML,UNKNOWN,North
2021-09-30T10:00:02Z,2021,10,0,273.4167,273.4167,66.07,-23.117,1006.8,2.7,-999.0,yes,yes,no,300234068447260,BD2GHI,AOML,UNKNOWN,North
2021-09-30T10:59:57Z,2021,11,0,273.4583,273.4583,66.069,-23.118,1007.1,2.33,-999.0,yes,yes,no,300234068447260,BD2GHI,AOML,UNKNOWN,North
2021-09-30T12:00:00Z,2021,12,0,273.5,273.5,66.069,-23.117,1007.4,3.04,-999.0,yes,yes,no,300234068447260,BD2GHI,AOML,UNKNOWN,North
2021-09-30T13:00:02Z,2021,13,0,273.5417,273.5417,66.07,-23.115,1007.5,4.83,-999.0,yes,yes,no,300234068447260,BD2GHI,AOML,UNKNOWN,North
2021-09-30T13:59:57Z,2021,14,0,273.5833,273.5833,66.069,-23.118,1007.7,6.32,-999.0,yes,yes,no,300234068447260,BD2GHI,AOML,UNKNOWN,North
2021-09-30T15:00:00Z,2021,15,0,273.625,273.625,66.069,-23.117,1007.8,7.9,-999.0,yes,yes,no,300234068447260,BD2GHI,AOML,UNKNOWN,North
2021-09-30T16:00:02Z,2021,16,0,273.6667,273.6667,66.069,-23.118,1007.8,8.74,-999.0,yes,yes,no,300234068447260,BD2GHI,AOML,UNKNOWN,North